Terminal Aerodrome Forecast
Issued by NWS

Current Version | Previous Version | Graphics & Text | Print | Product List | Glossary On
Versions: 1 2 3 4 5 6 7 8 9 10 11 12 13 14 15 16 17 18
678
FTUS41 KILN 191138
TAFLCK
TAF
KLCK 191138Z 1912/2012 14005KT P6SM BKN070
     FM191500 18006KT P6SM VCTS OVC060CB
     FM200000 13004KT P6SM VCSH OVC070
     FM200300 13004KT P6SM OVC070
     FM200700 VRB03KT 5SM BR BKN070=

USA.gov is the U.S. government's official web portal to all federal, state and local government web resources and services.